Regional Weather Roundup
Issued by NWS Cleveland, OH

Home | Current Version | Previous Version | Text Only | Print | Product List | Glossary Off
Versions: 1 2 3 4 5 6 7 8 9 10 11 12 13 14 15 16 17 18 19 20 21 22 23 24 25 26 27 28 29 30 31 32 33 34 35 36 37 38 39 40 41 42 43 44 45 46 47 48 49 50

000
ASUS41 KCLE 242000
RWRCLE
OHIO REGIONAL WEATHER ROUNDUP
NATIONAL WEATHER SERVICE WILMINGTON, OH
400 PM EDT FRI OCT 24 2014

NOTE: "FAIR" INDICATES FEW OR NO CLOUDS BELOW 12,000 FEET WITH NO
SIGNIFICANT WEATHER AND/OR OBSTRUCTIONS TO VISIBILITY.

OHZ001>008-015>018-024>027-034-035-043-044-242100-
   NORTHWEST OHIO

CITY           SKY/WX    TMP DP  RH WIND       PRES   REMARKS
DEFIANCE       CLOUDY    59  48  67 S6        30.02F
FINDLAY        CLOUDY    62  42  47 SW8       30.01F
TOLEDO EXPRESS CLOUDY    59  44  57 SW6       30.00F
TOLEDO METCALF CLOUDY    60  43  53 SW9       30.01F
LIMA           SUNNY     65  42  43 W9        30.02F
$$

OHZ009>014-019>023-028>033-038-089-242100-
   NORTHEAST OHIO

CITY           SKY/WX    TMP DP  RH WIND       PRES   REMARKS
CLE-HOPKINS    MOSUNNY   62  41  46 W9        30.02F
CLE-LAKEFRONT  MOSUNNY   57  44  62 NW5       30.00F
CUY CO. ARPT   MOSUNNY   61  46  59 NW6       30.01F
LORAIN-ELYRIA  SUNNY     61  39  44 SW8       30.01F
ASHTABULA      SUNNY     58  42  55 W5        30.01F
AKRON-CANTON   MOSUNNY   61  39  44 SW7       30.02F
WOOSTER        NOT AVBL
MANSFIELD      SUNNY     62  37  39 MISG      30.01F
YOUNGSTOWN     MOSUNNY   61  38  42 SW6       30.00F
$$

OHZ042-051>053-060>062-070>072-077>081-242100-
  SOUTHWEST OHIO

CITY           SKY/WX    TMP DP  RH WIND       PRES   REMARKS
CINC-COVINGTON NOT AVBL
CINC-LUNKEN    SUNNY     65  39  38 S3        30.05S
HAMILTON       SUNNY     67  37  33 VRB6      30.04F
DAYTON         NOT AVBL
WRIGHT-PAT AFB SUNNY     64  41  41 SW7       30.03F
DAYTON GENERAL SUNNY     63  37  38 W6        30.03F
WILMINGTON     SUNNY     65  40  39 VRB6      30.03F
$$

OHZ036-037-039>041-045>050-054>059-063>069-073>076-082>088-242100-
  CENTRAL AND SOUTHEAST OHIO

CITY           SKY/WX    TMP DP  RH WIND       PRES   REMARKS
COLUMBUS       MOSUNNY   63  38  39 SW5       30.02F
OSU AIRPORT    SUNNY     64  34  32 CALM      30.01F
BOLTON FIELD   SUNNY     64  39  39 W3        30.03F
RICKENBACK AFB NOT AVBL
NEWARK         SUNNY     63  39  41 VRB3      30.03F
MARION         SUNNY     63  38  39 CALM      30.02F HAZE
LANCASTER      SUNNY     63  41  44 W6        30.04F
ZANESVILLE     SUNNY     62  38  40 VRB3      30.04F
NEW PHILLY     SUNNY     63  41  44 W5        30.03F
$$



USA.gov is the U.S. government's official web portal to all federal, state and local government web resources and services.